Temperature
32 31 31 32 32 32 32 32 32 33 34 34 33 32 32 32 32 31 30 29 28 27 27 26 25 24 23 22 22 22 21 21 21 21 20 20 20 20 20 20 20 20 19 19
32 31 33 34 34 33 33 32 33 33 34 34 33 32 32 33 32 32 31 30 29 28 27 26 25 24 23 23 22 22 21 21 21 21 21 20 20 20 20 20 20 20 19 19
32 32 34 33 33 33 33 33 33 33 33 34 33 32 32 32 32 31 31 30 30 28 27 26 25 24 24 23 22 22 21 21 21 21 20 20 20 20 20 19 19 19 19 19
32 33 34 33 33 33 32 33 34 33 32 31 32 30 31 32 32 32 31 30 30 29 28 26 25 25 24 23 22 22 22 21 21 21 20 20 20 20 20 20 19 19 19 19
32 33 33 33 34 34 33 34 33 33 32 31 31 30 30 32 31 31 31 30 30 29 28 27 26 25 24 23 23 22 22 21 21 21 20 20 20 20 20 19 19 19 19 19
33 34 34 34 34 34 34 33 32 32 31 29 30 30 30 31 31 31 31 30 29 29 28 27 26 25 24 24 23 22 21 21 21 20 20 20 20 20 20 19 19 19 19 19
32 33 34 34 34 34 34 32 30 28 28 29 31 31 30 31 32 32 31 30 30 29 28 27 26 25 24 23 23 22 22 21 21 20 20 20 20 20 19 19 19 19 19 19
31 31 33 34 33 33 33 32 30 28 29 30 30 30 31 32 32 32 31 30 29 29 28 27 26 25 24 23 23 22 22 21 21 20 20 20 20 20 19 19 19 19 19 19
31 31 33 34 34 34 33 33 33 32 31 29 30 30 30 31 32 32 32 31 29 29 28 27 26 25 24 23 23 22 22 21 21 20 20 20 20 19 19 19 19 18 18 18
32 31 32 33 34 34 34 33 33 32 29 29 29 29 29 30 31 31 31 30 29 28 27 27 26 25 24 23 23 22 22 21 21 20 20 20 20 19 19 19 18 18 18 18
32 31 31 32 32 32 33 33 32 32 31 29 28 28 31 30 30 30 30 29 29 28 27 27 26 25 24 23 23 22 22 21 21 20 20 20 19 19 19 19 18 18 18 18
32 31 30 32 34 34 33 32 32 31 30 30 30 29 31 31 30 30 29 29 28 28 27 26 25 25 24 23 23 22 21 21 20 20 20 19 19 19 18 18 18 18 18 18
31 30 29 30 32 32 32 32 32 32 31 30 29 29 31 30 29 29 29 28 27 26 26 25 25 24 23 23 22 22 21 21 20 20 19 19 19 19 18 18 18 18 18 17
30 30 29 29 30 30 30 31 32 31 30 30 29 29 30 30 29 29 28 27 27 26 25 24 24 23 23 22 22 21 21 20 20 20 19 19 19 18 18 18 18 18 17 17
31 30 30 31 31 31 31 31 31 31 31 30 30 30 30 29 29 28 27 27 26 25 25 24 23 22 22 22 21 21 20 20 20 19 19 19 18 18 18 18 17 17 17 17
30 30 30 30 31 31 31 31 31 31 31 31 30 29 29 28 28 27 27 26 25 24 24 23 23 22 21 21 21 20 20 20 19 19 19 19 18 18 17 17 17 17 17 16
30 29 28 28 30 30 30 31 31 31 31 31 29 28 28 27 27 26 26 25 24 24 23 23 22 22 21 20 20 20 19 19 19 19 18 18 18 17 17 17 17 17 16 16
29 28 28 28 28 27 30 31 31 30 29 30 29 28 28 27 26 26 25 24 24 23 22 22 21 21 20 20 20 19 19 19 18 18 18 17 17 17 17 17 17 16 16 16
30 28 27 27 27 28 29 30 30 29 28 29 28 28 27 26 25 25 24 23 23 22 22 21 21 20 20 20 19 19 18 18 18 18 17 17 17 17 17 16 16 16 16 16
29 29 27 27 26 26 26 28 28 28 27 27 27 26 26 26 25 24 23 22 22 21 21 20 20 20 20 19 19 19 18 18 18 17 17 17 17 16 16 16 16 16 16 15
27 27 27 26 26 26 26 27 28 26 24 25 25 25 25 24 24 23 22 21 21 20 20 20 19 19 19 19 18 18 18 17 17 17 17 16 16 16 16 16 16 15 15 15
26 26 26 26 25 24 25 26 25 24 24 24 24 24 23 22 22 21 21 20 19 19 19 19 19 18 18 18 18 18 17 17 17 16 16 16 16 16 16 15 15 15 15 15
26 26 26 25 24 23 24 23 23 23 23 23 23 22 22 21 21 20 19 19 18 18 18 18 18 17 17 17 17 17 17 16 16 16 16 15 15 15 15 15 15 15 15 14
25 26 25 24 24 24 23 23 22 22 22 22 21 21 21 20 20 19 19 18 18 17 17 17 17 16 16 16 16 16 16 16 16 15 15 15 15 15 15 15 14 14 14 14
24 24 24 23 23 23 22 22 21 21 21 21 21 20 20 20 19 19 18 17 17 16 16 16 16 16 16 15 15 15 15 15 15 15 15 15 15 14 14 14 14 14 14 14
23 23 23 22 22 22 21 21 21 20 20 20 20 20 19 19 18 18 17 17 16 16 16 16 15 15 15 15 15 15 15 15 15 14 14 14 14 14 14 14 14 14 14 14
Wind_Speed
13 12 12 10 10 9 10 9 7 5 5 5 6 7 8 9 8 9 10 10 10 11 11 10 10 10 9 9 8 7 5 5 4 3 3 2 3 2 2 3 3 2 1 1
13 14 13 11 10 10 11 10 7 5 5 5 5 6 7 8 8 8 10 10 11 12 11 10 10 10 10 9 8 7 6 6 5 4 3 3 3 3 3 2 3 3 2 1
16 11 10 12 12 11 10 10 7 7 8 7 6 6 7 8 8 8 8 9 10 11 12 12 11 9 10 10 10 8 6 6 5 4 3 3 3 2 2 3 3 2 2 2
14 13 12 12 12 11 8 9 10 9 9 7 8 6 7 10 10 10 10 9 9 10 11 12 11 10 10 10 10 8 7 6 6 5 4 4 3 3 2 2 3 3 2 2
13 13 14 14 12 10 9 9 9 10 10 10 8 7 7 10 11 11 10 9 8 9 10 11 11 10 10 10 10 9 8 7 6 5 4 4 3 3 2 3 4 3 3 2
16 15 13 12 11 10 10 9 8 9 9 12 11 8 6 6 8 9 10 10 9 10 9 10 9 9 8 8 8 9 8 7 6 6 5 5 3 3 2 2 3 3 2 2
17 17 15 12 12 11 11 9 6 6 8 10 10 8 4 5 5 7 8 9 9 8 9 10 10 9 8 8 8 9 9 8 7 6 5 5 5 4 3 3 2 2 2 2
14 15 14 13 13 11 12 12 9 8 9 8 7 5 3 6 6 7 9 10 10 9 8 9 9 9 8 8 7 8 9 8 7 6 5 4 4 4 3 3 2 2 2 3
11 12 11 12 12 13 12 12 12 11 12 9 6 3 3 4 7 8 9 10 10 9 8 8 9 8 8 8 7 7 8 8 8 7 6 5 4 3 3 3 2 2 2 3
13 11 11 12 12 14 13 12 10 9 8 9 7 6 5 7 6 6 6 7 8 9 8 8 8 8 7 7 7 8 8 8 8 7 6 6 5 4 3 3 3 2 2 2
15 14 13 13 14 14 13 13 11 9 9 9 7 4 4 5 4 4 5 7 7 7 7 7 7 7 7 7 7 7 7 7 7 7 6 5 5 5 5 4 3 3 3 3
11 11 12 14 13 13 12 13 13 10 9 10 9 5 3 4 5 4 3 6 7 7 6 5 6 7 6 6 6 6 6 7 6 6 6 5 5 5 5 5 4 4 4 3
5 8 11 12 9 9 11 11 13 12 10 10 9 4 4 6 5 5 5 6 6 6 5 4 5 5 5 5 5 5 5 5 5 5 6 6 6 5 5 4 4 4 3 3
5 10 13 13 7 8 11 13 12 11 10 9 7 6 5 4 4 6 7 6 7 6 5 5 5 5 4 4 4 4 4 4 5 5 5 3 4 4 4 4 4 4 3 3
7 12 14 13 12 11 12 13 12 13 12 11 8 7 3 5 5 5 7 6 6 5 5 5 5 5 4 5 4 4 4 4 4 4 4 3 2 2 2 3 4 3 3 3
9 11 12 13 13 13 13 13 13 14 12 10 6 4 1 5 7 5 5 6 5 4 4 4 4 4 4 4 4 3 4 4 4 4 4 4 3 2 2 2 3 3 3 3
9 10 12 13 14 14 13 10 10 8 5 4 2 1 3 4 5 4 4 5 4 4 3 3 3 4 4 4 4 4 3 4 4 3 3 3 3 3 3 3 3 3 3 3
10 9 9 11 13 15 10 6 6 3 3 2 2 3 3 4 5 3 4 5 4 4 2 3 2 3 3 4 4 3 3 3 4 4 3 3 3 3 2 2 2 4 4 4
10 7 8 10 13 14 7 6 5 3 2 3 3 2 3 6 5 3 5 4 3 4 3 2 2 3 3 3 4 4 3 3 4 3 3 3 3 3 3 3 3 2 3 3
11 8 9 11 13 12 5 7 7 5 3 4 4 3 2 2 1 1 3 4 4 4 3 2 2 2 2 2 3 4 3 3 3 2 2 2 2 2 3 3 3 2 2 3
10 11 12 13 13 6 6 7 6 4 2 6 4 3 3 4 3 4 5 5 5 4 4 3 3 3 3 2 2 3 2 2 2 2 2 2 3 3 4 3 3 3 3 3
8 8 9 10 10 4 9 5 3 4 5 6 6 6 6 6 6 5 5 5 4 4 4 4 4 4 4 4 4 3 1 1 1 2 2 2 2 3 3 3 3 3 3 3
5 5 4 3 1 3 6 6 6 5 5 6 6 6 5 4 5 5 5 5 5 5 4 4 4 4 4 4 3 2 1 1 1 1 1 1 1 2 2 3 3 4 4 4
4 3 2 2 1 3 4 5 6 6 5 5 5 5 4 3 4 4 4 4 4 4 4 3 3 3 3 2 2 2 2 1 1 0 1 1 2 2 2 3 3 3 3 3
7 4 3 3 2 2 2 3 4 4 4 4 4 4 4 3 3 3 3 3 3 3 3 3 2 2 2 2 2 2 2 2 1 1 2 2 3 3 2 2 2 2 1 2
6 5 4 3 1 2 1 2 2 3 3 4 4 4 4 3 3 3 3 3 3 2 2 2 2 2 2 2 2 2 2 1 1 2 2 3 3 2 2 2 2 2 3 2
Wind_Direction
228 234 244 242 238 242 258 257 257 253 210 217 224 191 185 185 186 171 169 168 165 167 165 162 160 160 155 147 148 152 160 156 160 164 173 171 158 153 138 123 112 115 93 80
237 234 245 254 252 249 256 256 252 260 252 253 244 208 190 199 195 184 175 174 170 167 166 163 165 167 163 156 154 157 167 165 167 167 176 174 169 164 156 129 123 127 121 67
236 239 236 249 254 256 259 270 268 267 260 253 251 226 199 200 196 188 187 180 173 171 168 169 173 174 168 165 164 169 167 165 174 175 179 177 169 184 154 144 138 132 136 115
241 244 244 245 249 257 261 273 273 267 262 259 250 239 211 203 194 190 189 185 174 172 169 170 174 177 174 171 169 164 162 165 170 176 185 186 176 178 172 157 142 141 126 121
243 240 242 244 248 255 262 266 279 288 285 278 262 260 218 206 196 190 177 176 174 169 173 172 173 174 175 171 167 165 161 166 165 173 174 186 192 188 174 155 147 150 153 148
249 248 243 248 252 253 262 263 272 282 279 271 262 255 235 206 193 176 170 168 166 164 161 163 163 157 166 165 163 159 158 162 167 180 180 183 190 188 174 165 160 165 149 140
241 244 239 241 246 239 247 257 262 262 252 253 251 245 215 187 178 162 166 170 155 150 153 159 161 161 165 166 168 164 159 166 173 180 185 188 189 187 188 185 171 168 151 136
234 236 232 232 237 244 242 243 242 252 260 268 259 241 183 150 155 158 169 162 156 161 160 161 161 162 165 166 162 157 161 166 172 175 180 188 192 198 191 181 170 165 150 139
248 245 237 235 236 241 244 251 257 263 271 272 263 250 159 173 166 163 161 154 155 157 157 157 159 161 162 165 164 160 155 164 171 175 172 181 184 189 182 171 178 166 135 154
249 261 248 239 236 236 241 254 265 265 270 275 265 244 208 191 182 157 146 151 152 153 157 159 158 160 156 157 160 159 155 164 171 175 179 178 170 175 177 186 180 149 141 147
243 253 250 237 228 236 235 243 253 266 265 268 268 266 210 184 170 173 175 161 152 151 149 150 155 155 158 156 153 160 155 160 169 170 169 165 172 178 178 185 180 164 161 166
240 255 259 252 248 236 238 249 254 257 258 271 278 265 197 142 149 172 156 130 131 135 134 138 144 146 149 148 148 150 154 164 167 165 165 167 173 179 186 188 180 173 167 176
264 256 257 256 246 241 241 244 254 261 264 261 265 258 172 135 152 153 127 120 113 118 122 117 110 118 136 136 138 143 151 166 166 160 166 172 179 187 193 187 170 168 173 184
258 251 255 259 255 251 252 250 258 265 264 265 261 243 206 177 167 134 128 134 128 122 122 118 112 106 110 111 114 130 155 159 153 149 156 163 184 185 185 179 170 176 181 192
251 252 261 266 268 254 257 258 254 259 263 268 261 256 229 147 133 127 127 128 129 124 121 114 108 104 104 106 114 127 141 135 139 143 151 155 162 157 160 163 166 172 187 202
243 265 276 275 268 267 259 258 251 251 253 252 253 255 81 101 118 122 127 137 134 125 121 119 116 115 113 123 128 126 136 136 140 148 149 145 153 158 150 172 167 172 189 204
250 257 269 273 278 273 260 263 267 271 286 272 251 170 104 115 121 137 141 137 134 138 147 125 123 122 128 132 133 136 141 142 141 145 147 148 157 166 175 191 169 182 197 201
249 257 263 266 274 265 270 283 286 295 312 348 88 115 121 113 96 92 113 118 126 133 145 135 132 123 116 121 128 132 143 141 144 149 151 158 170 177 181 193 193 204 199 200
255 249 257 263 262 263 274 312 329 315 308 20 46 70 105 105 99 84 85 91 109 133 134 119 120 129 118 121 139 145 156 151 156 164 168 175 181 185 196 206 212 218 209 208
243 244 249 256 262 267 302 331 336 307 271 39 50 16 28 117 184 102 87 74 80 87 93 93 85 92 93 105 152 158 170 160 166 174 178 177 187 202 208 209 209 213 214 216
228 233 243 256 262 269 335 337 311 273 350 13 37 30 35 45 45 78 79 84 88 90 84 82 79 77 73 72 99 124 132 165 174 167 169 176 191 205 205 204 209 215 223 227
250 247 247 256 262 276 352 349 3 36 41 30 38 40 48 57 69 68 71 86 89 87 83 73 65 64 64 64 76 80 75 129 133 146 173 196 209 233 219 192 206 211 219 235
267 284 284 295 346 65 38 49 40 33 44 37 31 32 48 56 70 68 72 83 82 77 68 67 67 65 59 55 62 64 34 56 119 152 189 217 231 242 219 202 212 216 220 234
298 324 282 274 88 58 44 41 37 31 37 30 25 22 26 51 63 75 77 75 72 67 65 58 65 72 63 49 39 31 28 31 77 193 255 235 223 235 236 229 229 228 233 241
306 303 287 273 299 316 18 32 30 25 27 22 18 11 14 56 65 67 78 79 77 71 60 62 64 58 45 34 27 25 26 33 14 273 270 256 250 243 243 244 261 254 251 242
296 298 284 279 308 293 328 19 25 33 17 6 10 10 21 36 48 51 69 71 66 59 49 32 33 34 33 31 13 4 2 359 286 255 262 267 262 256 255 240 261 265 233 206
Height
1479 1482 1482 1477 1474 1476 1475 1477 1479 1472 1465 1470 1474 1476 1477 1478 1481 1485 1489 1493 1498 1502 1506 1509 1511 1513 1515 1516 1518 1519 1521 1522 1524 1525 1526 1527 1528 1529 1530 1530 1530 1531 1531 1531
1478 1479 1473 1469 1469 1470 1472 1477 1476 1471 1464 1467 1472 1474 1474 1475 1479 1482 1486 1490 1494 1499 1503 1507 1510 1512 1513 1515 1516 1518 1519 1521 1522 1523 1525 1526 1528 1529 1529 1530 1530 1530 1530 1531
1476 1472 1468 1469 1469 1471 1472 1474 1473 1474 1467 1465 1472 1479 1476 1475 1477 1480 1484 1487 1491 1495 1500 1504 1507 1509 1511 1513 1514 1516 1518 1519 1521 1522 1524 1526 1527 1528 1529 1530 1530 1530 1530 1530
1469 1466 1466 1467 1468 1468 1476 1467 1467 1469 1475 1480 1477 1494 1480 1473 1475 1477 1481 1484 1488 1492 1496 1501 1504 1507 1509 1511 1513 1514 1516 1518 1519 1521 1523 1524 1525 1526 1528 1528 1529 1529 1529 1529
1468 1464 1465 1467 1465 1464 1467 1463 1467 1470 1475 1481 1479 1488 1482 1470 1475 1475 1477 1482 1485 1490 1493 1497 1501 1505 1507 1509 1511 1513 1514 1516 1518 1519 1521 1522 1524 1525 1526 1527 1528 1528 1528 1528
1462 1459 1459 1460 1458 1460 1461 1465 1469 1472 1480 1498 1484 1489 1487 1471 1470 1471 1474 1479 1483 1487 1491 1495 1499 1502 1505 1508 1510 1512 1513 1514 1516 1518 1519 1520 1522 1523 1524 1525 1526 1526 1526 1527
1465 1459 1455 1456 1460 1460 1462 1476 1494 1503 1504 1499 1477 1480 1480 1466 1464 1467 1472 1478 1482 1486 1489 1493 1497 1500 1503 1505 1507 1509 1510 1512 1514 1515 1517 1519 1520 1521 1522 1523 1524 1525 1525 1525
1472 1470 1455 1454 1458 1463 1463 1470 1493 1508 1505 1491 1477 1481 1472 1460 1464 1467 1471 1475 1480 1484 1488 1491 1495 1498 1501 1503 1505 1507 1508 1510 1512 1513 1515 1517 1518 1519 1521 1522 1523 1523 1524 1524
1466 1466 1451 1451 1452 1455 1463 1464 1461 1474 1481 1491 1484 1474 1469 1463 1464 1467 1469 1473 1478 1483 1486 1490 1493 1496 1499 1501 1503 1505 1506 1508 1510 1512 1513 1514 1516 1517 1518 1519 1521 1522 1522 1523
1456 1466 1454 1449 1451 1451 1453 1456 1462 1473 1494 1499 1490 1484 1479 1470 1467 1466 1470 1473 1477 1481 1486 1488 1491 1494 1497 1499 1501 1503 1504 1506 1508 1510 1512 1513 1514 1515 1516 1518 1519 1519 1520 1521
1451 1462 1459 1452 1455 1457 1455 1459 1461 1466 1471 1489 1499 1490 1463 1465 1466 1468 1469 1473 1477 1480 1484 1487 1490 1493 1495 1497 1499 1501 1503 1505 1506 1508 1509 1511 1512 1513 1514 1515 1516 1517 1518 1519
1449 1456 1462 1454 1443 1443 1449 1454 1458 1473 1477 1473 1483 1484 1457 1460 1464 1468 1470 1473 1476 1480 1483 1486 1489 1491 1493 1495 1498 1499 1501 1503 1504 1506 1507 1509 1510 1512 1512 1513 1514 1515 1516 1517
1452 1460 1473 1468 1457 1449 1450 1450 1452 1456 1463 1472 1483 1482 1458 1461 1465 1468 1471 1475 1478 1481 1484 1486 1488 1490 1492 1494 1496 1498 1500 1501 1503 1504 1506 1507 1508 1509 1510 1511 1512 1513 1513 1514
1453 1459 1466 1474 1466 1458 1458 1454 1452 1457 1468 1472 1473 1471 1463 1462 1465 1468 1473 1476 1479 1482 1484 1486 1488 1490 1492 1493 1495 1496 1498 1500 1501 1502 1503 1504 1506 1507 1507 1508 1509 1510 1511 1512
1452 1458 1456 1452 1449 1449 1452 1452 1452 1456 1458 1464 1465 1463 1461 1461 1465 1469 1473 1476 1479 1481 1484 1486 1488 1490 1491 1492 1494 1495 1497 1498 1499 1500 1501 1502 1503 1504 1505 1505 1505 1507 1508 1510
1452 1456 1456 1456 1449 1447 1449 1448 1448 1450 1450 1452 1457 1463 1459 1461 1465 1470 1473 1477 1479 1482 1484 1486 1488 1489 1490 1491 1492 1494 1495 1496 1497 1498 1498 1499 1501 1502 1502 1503 1503 1504 1506 1507
1452 1458 1464 1465 1453 1451 1458 1449 1446 1447 1446 1449 1459 1461 1459 1464 1467 1470 1473 1476 1479 1482 1484 1485 1487 1488 1489 1490 1491 1492 1494 1495 1496 1496 1497 1498 1499 1500 1500 1501 1502 1502 1503 1505
1453 1457 1460 1462 1463 1474 1455 1440 1441 1446 1450 1449 1453 1457 1460 1465 1468 1472 1474 1476 1479 1482 1484 1485 1486 1487 1488 1489 1490 1491 1492 1493 1494 1495 1495 1496 1497 1498 1498 1499 1500 1500 1501 1502
1447 1454 1462 1465 1470 1464 1452 1445 1446 1451 1455 1454 1456 1459 1462 1465 1469 1473 1475 1477 1479 1481 1483 1484 1485 1486 1487 1488 1489 1490 1491 1492 1493 1494 1494 1494 1495 1496 1496 1497 1497 1498 1499 1499
1447 1450 1460 1464 1471 1473 1463 1451 1450 1453 1462 1458 1460 1463 1464 1465 1471 1475 1476 1478 1479 1481 1482 1483 1484 1484 1485 1486 1487 1488 1489 1490 1491 1492 1492 1492 1493 1494 1494 1495 1495 1496 1497 1497
1454 1455 1460 1463 1466 1465 1459 1454 1453 1468 1473 1464 1464 1465 1467 1469 1473 1476 1477 1478 1480 1481 1482 1482 1483 1484 1484 1485 1486 1487 1488 1488 1489 1490 1490 1491 1491 1491 1492 1493 1493 1494 1494 1495
1454 1458 1460 1462 1468 1475 1463 1459 1464 1470 1468 1468 1467 1469 1470 1472 1474 1476 1477 1478 1480 1481 1481 1481 1482 1483 1483 1484 1484 1485 1486 1487 1487 1487 1488 1489 1489 1490 1491 1491 1491 1491 1492 1492
1452 1454 1456 1462 1470 1469 1466 1467 1469 1469 1470 1471 1471 1472 1473 1474 1476 1477 1477 1478 1479 1480 1481 1481 1482 1482 1483 1483 1483 1484 1484 1485 1485 1486 1486 1487 1487 1488 1489 1489 1489 1489 1489 1490
1453 1453 1457 1463 1465 1467 1468 1469 1470 1472 1473 1474 1473 1474 1475 1476 1477 1477 1478 1479 1480 1480 1481 1482 1482 1482 1482 1482 1482 1483 1483 1483 1483 1484 1484 1485 1485 1486 1486 1486 1487 1487 1487 1487
1459 1458 1459 1464 1466 1467 1469 1471 1472 1473 1474 1474 1475 1475 1476 1476 1477 1478 1479 1480 1480 1481 1481 1482 1482 1482 1482 1482 1481 1481 1481 1481 1481 1481 1482 1483 1483 1483 1484 1484 1484 1484 1484 1484
1461 1462 1464 1466 1467 1469 1471 1472 1473 1474 1475 1475 1476 1476 1477 1477 1478 1479 1479 1480 1480 1481 1481 1481 1481 1481 1481 1480 1480 1480 1480 1480 1479 1480 1479 1480 1480 1480 1481 1481 1481 1480 1480 1480